QPF
0.07 0.05 0.02 0.03 0.03 0.03 0.05 0.05 0.04 0.04 0.04 0.07 0.07 0.06 0.07 0.08 0.07 0.08 0.08 0.06 0.05 0.05 0.06 0.08 0.08 0.07 0.08 0.07 0.06 0.05 0.03 0.03 0.05 0.06 0.08 0.07 0.07 0.07 0.07 0.05 0.05 0.05 0.05
0.03 0.03 0.02 0.02 0.02 0.02 0.04 0.06 0.05 0.04 0.04 0.05 0.06 0.05 0.05 0.06 0.05 0.05 0.06 0.05 0.05 0.04 0.05 0.06 0.07 0.07 0.08 0.07 0.07 0.06 0.05 0.04 0.05 0.05 0.06 0.07 0.07 0.10 0.10 0.07 0.05 0.05 0.06
0.03 0.03 0.02 0.02 0.01 0.02 0.03 0.04 0.05 0.05 0.05 0.05 0.04 0.05 0.05 0.06 0.04 0.03 0.05 0.07 0.06 0.05 0.04 0.05 0.06 0.05 0.05 0.06 0.07 0.07 0.06 0.06 0.06 0.06 0.06 0.06 0.06 0.08 0.10 0.08 0.05 0.05 0.06
0.03 0.03 0.03 0.05 0.05 0.04 0.03 0.03 0.04 0.04 0.04 0.04 0.03 0.04 0.04 0.04 0.03 0.03 0.06 0.09 0.11 0.08 0.05 0.06 0.05 0.05 0.04 0.04 0.06 0.07 0.07 0.08 0.09 0.09 0.09 0.07 0.06 0.07 0.07 0.08 0.09 0.07 0.07
0.03 0.03 0.07 0.09 0.05 0.04 0.04 0.04 0.03 0.03 0.03 0.03 0.03 0.03 0.03 0.02 0.03 0.03 0.06 0.08 0.09 0.07 0.09 0.08 0.04 0.04 0.05 0.05 0.05 0.07 0.10 0.11 0.11 0.12 0.12 0.11 0.12 0.11 0.08 0.08 0.09 0.10 0.11
0.02 0.02 0.07 0.09 0.06 0.04 0.05 0.05 0.05 0.04 0.03 0.03 0.03 0.03 0.03 0.02 0.02 0.03 0.03 0.05 0.04 0.05 0.08 0.07 0.08 0.07 0.05 0.05 0.05 0.06 0.08 0.09 0.10 0.09 0.10 0.11 0.10 0.09 0.07 0.05 0.05 0.07 0.08
0.02 0.02 0.04 0.07 0.06 0.05 0.06 0.08 0.11 0.07 0.04 0.03 0.04 0.05 0.05 0.05 0.03 0.03 0.03 0.03 0.03 0.04 0.04 0.05 0.10 0.11 0.05 0.03 0.03 0.03 0.06 0.10 0.08 0.08 0.07 0.07 0.07 0.06 0.05 0.05 0.05 0.06 0.08
0.01 0.01 0.02 0.04 0.04 0.04 0.06 0.12 0.10 0.06 0.04 0.03 0.04 0.05 0.07 0.08 0.05 0.04 0.04 0.04 0.03 0.03 0.03 0.03 0.03 0.05 0.05 0.02 0.02 0.02 0.04 0.07 0.06 0.07 0.07 0.06 0.06 0.05 0.05 0.07 0.07 0.08 0.09
0.02 0.01 0.01 0.03 0.06 0.06 0.06 0.08 0.06 0.06 0.05 0.04 0.05 0.06 0.06 0.06 0.06 0.05 0.04 0.03 0.04 0.05 0.03 0.02 0.02 0.02 0.02 0.03 0.03 0.03 0.03 0.03 0.04 0.05 0.05 0.06 0.06 0.06 0.06 0.07 0.10 0.09 0.08
0.02 0.01 0.01 0.01 0.03 0.05 0.06 0.06 0.05 0.05 0.05 0.05 0.06 0.06 0.06 0.04 0.04 0.05 0.04 0.03 0.04 0.05 0.03 0.02 0.02 0.01 0.02 0.03 0.03 0.03 0.03 0.02 0.02 0.03 0.05 0.06 0.06 0.06 0.06 0.07 0.08 0.08 0.07
0.02 0.02 0.01 0.02 0.02 0.04 0.04 0.06 0.07 0.06 0.05 0.06 0.06 0.05 0.05 0.04 0.04 0.04 0.03 0.04 0.05 0.04 0.04 0.03 0.02 0.02 0.04 0.04 0.04 0.03 0.02 0.02 0.02 0.03 0.04 0.05 0.05 0.05 0.06 0.07 0.07 0.09 0.11
0.01 0.02 0.02 0.01 0.02 0.03 0.05 0.06 0.07 0.07 0.08 0.07 0.07 0.07 0.06 0.05 0.04 0.04 0.03 0.03 0.03 0.03 0.03 0.03 0.03 0.04 0.06 0.04 0.04 0.04 0.03 0.03 0.03 0.03 0.04 0.03 0.03 0.02 0.04 0.05 0.06 0.09 0.15
0.01 0.01 0.02 0.01 0.01 0.02 0.03 0.03 0.04 0.03 0.02 0.03 0.03 0.05 0.06 0.07 0.05 0.05 0.05 0.04 0.03 0.03 0.03 0.04 0.03 0.04 0.04 0.04 0.04 0.04 0.03 0.02 0.02 0.03 0.03 0.02 0.02 0.02 0.02 0.03 0.04 0.07 0.13
0.01 0.01 0.02 0.02 0.01 0.01 0.02 0.02 0.02 0.01 0.01 0.01 0.02 0.02 0.03 0.05 0.05 0.04 0.05 0.05 0.04 0.03 0.03 0.03 0.03 0.03 0.03 0.02 0.04 0.05 0.04 0.03 0.02 0.02 0.02 0.01 0.01 0.01 0.02 0.02 0.04 0.06 0.08
0.01 0.01 0.01 0.02 0.01 0.02 0.02 0.03 0.02 0.01 0.01 0.01 0.01 0.01 0.01 0.02 0.03 0.04 0.04 0.04 0.03 0.03 0.02 0.02 0.02 0.02 0.02 0.02 0.03 0.05 0.05 0.04 0.02 0.02 0.02 0.01 0.01 0.01 0.01 0.01 0.02 0.02 0.03
0.01 0.01 0.01 0.02 0.02 0.02 0.03 0.03 0.02 0.02 0.01 0.01 0.01 0.01 0.02 0.03 0.04 0.04 0.04 0.05 0.04 0.03 0.02 0.01 0.01 0.01 0.01 0.02 0.02 0.03 0.04 0.04 0.02 0.01 0.02 0.02 0.01 0.01 0.01 0.02 0.01 0.02 0.02
0.01 0.01 0.01 0.01 0.02 0.03 0.02 0.02 0.02 0.02 0.02 0.02 0.02 0.02 0.03 0.03 0.04 0.04 0.05 0.05 0.05 0.04 0.03 0.02 0.01 0.01 0.02 0.01 0.01 0.01 0.03 0.04 0.02 0.01 0.01 0.01 0.01 0.01 0.02 0.02 0.02 0.02 0.02
0.01 0.01 0.01 0.01 0.02 0.02 0.02 0.02 0.02 0.02 0.03 0.03 0.03 0.03 0.04 0.04 0.04 0.05 0.06 0.05 0.05 0.05 0.04 0.02 0.02 0.02 0.02 0.02 0.01 0.01 0.01 0.02 0.01 0.01 0.00 0.00 0.00 0.01 0.01 0.02 0.03 0.02 0.03
0.01 0.01 0.01 0.01 0.01 0.02 0.02 0.02 0.02 0.03 0.02 0.02 0.03 0.03 0.03 0.04 0.04 0.05 0.06 0.07 0.06 0.06 0.05 0.04 0.03 0.03 0.03 0.03 0.02 0.01 0.01 0.01 0.01 0.00 0.00 0.00 0.00 0.00 0.01 0.01 0.02 0.02 0.02
0.03 0.02 0.02 0.02 0.02 0.01 0.02 0.02 0.02 0.02 0.03 0.03 0.03 0.03 0.04 0.04 0.04 0.05 0.06 0.08 0.08 0.08 0.07 0.06 0.04 0.03 0.04 0.05 0.04 0.02 0.01 0.01 0.00 0.00 0.00 0.01 0.01 0.01 0.01 0.01 0.02 0.02 0.02
0.04 0.04 0.04 0.03 0.02 0.01 0.01 0.02 0.02 0.02 0.02 0.04 0.04 0.03 0.03 0.04 0.04 0.05 0.05 0.06 0.07 0.07 0.07 0.06 0.05 0.04 0.05 0.06 0.06 0.04 0.02 0.01 0.01 0.01 0.01 0.01 0.01 0.01 0.01 0.02 0.03 0.02 0.02
0.02 0.02 0.02 0.01 0.01 0.01 0.02 0.02 0.02 0.02 0.02 0.02 0.02 0.02 0.02 0.03 0.03 0.03 0.04 0.04 0.04 0.05 0.04 0.04 0.03 0.02 0.01 0.02 0.04 0.04 0.04 0.03 0.02 0.01 0.01 0.01 0.01 0.01 0.00 0.01 0.01 0.02 0.02
0.03 0.02 0.01 0.02 0.02 0.03 0.04 0.04 0.03 0.02 0.02 0.02 0.02 0.02 0.02 0.02 0.03 0.02 0.03 0.02 0.02 0.03 0.03 0.04 0.04 0.02 0.01 0.01 0.03 0.03 0.03 0.03 0.02 0.01 0.02 0.01 0.01 0.01 0.01 0.02 0.02 0.01 0.01
0.05 0.03 0.02 0.02 0.03 0.03 0.04 0.04 0.04 0.03 0.03 0.02 0.01 0.01 0.01 0.02 0.03 0.03 0.03 0.03 0.02 0.01 0.01 0.02 0.03 0.04 0.02 0.02 0.03 0.03 0.03 0.03 0.02 0.02 0.02 0.02 0.01 0.01 0.01 0.03 0.04 0.03 0.02
0.05 0.03 0.02 0.02 0.01 0.02 0.03 0.03 0.03 0.03 0.02 0.01 0.01 0.01 0.01 0.01 0.01 0.02 0.03 0.03 0.03 0.02 0.01 0.01 0.02 0.03 0.04 0.03 0.04 0.04 0.03 0.03 0.02 0.01 0.02 0.03 0.03 0.02 0.02 0.02 0.03 0.03 0.02
0.04 0.02 0.01 0.01 0.01 0.01 0.01 0.01 0.02 0.02 0.01 0.01 0.01 0.01 0.01 0.01 0.01 0.00 0.01 0.01 0.01 0.01 0.01 0.01 0.01 0.01 0.02 0.03 0.04 0.03 0.03 0.03 0.03 0.02 0.01 0.02 0.02 0.02 0.02 0.01 0.02 0.02 0.02
MSLP
1016.26 1016.22 1016.10 1015.94 1015.74 1015.53 1015.30 1015.05 1014.77 1014.47 1014.14 1013.82 1013.52 1013.28 1013.13 1013.08 1013.14 1013.27 1013.46 1013.65 1013.80 1013.90 1013.94 1013.92 1013.87 1013.82 1013.78 1013.76 1013.77 1013.79 1013.81 1013.80 1013.75 1013.68 1013.58 1013.47 1013.37 1013.29 1013.21 1013.13 1013.03 1012.90 1012.73
1016.31 1016.28 1016.18 1016.04 1015.85 1015.63 1015.39 1015.13 1014.83 1014.51 1014.17 1013.84 1013.54 1013.29 1013.12 1013.04 1013.05 1013.13 1013.25 1013.38 1013.49 1013.56 1013.59 1013.58 1013.55 1013.51 1013.48 1013.45 1013.43 1013.41 1013.37 1013.31 1013.23 1013.13 1013.02 1012.92 1012.83 1012.75 1012.68 1012.60 1012.50 1012.36 1012.18
1016.33 1016.32 1016.26 1016.14 1015.98 1015.78 1015.55 1015.29 1015.00 1014.68 1014.35 1014.03 1013.73 1013.48 1013.29 1013.17 1013.12 1013.12 1013.15 1013.19 1013.22 1013.24 1013.23 1013.21 1013.18 1013.14 1013.10 1013.07 1013.02 1012.95 1012.86 1012.75 1012.63 1012.50 1012.37 1012.27 1012.19 1012.13 1012.07 1012.00 1011.90 1011.76 1011.58
1016.32 1016.34 1016.31 1016.24 1016.12 1015.96 1015.76 1015.53 1015.26 1014.97 1014.67 1014.37 1014.09 1013.84 1013.64 1013.47 1013.35 1013.25 1013.17 1013.10 1013.03 1012.96 1012.90 1012.84 1012.78 1012.73 1012.68 1012.62 1012.54 1012.44 1012.30 1012.15 1011.98 1011.82 1011.69 1011.59 1011.52 1011.47 1011.42 1011.36 1011.27 1011.13 1010.96
1016.29 1016.33 1016.34 1016.31 1016.25 1016.14 1015.99 1015.80 1015.57 1015.32 1015.06 1014.80 1014.56 1014.32 1014.11 1013.91 1013.72 1013.53 1013.34 1013.14 1012.96 1012.78 1012.63 1012.50 1012.40 1012.32 1012.24 1012.16 1012.05 1011.91 1011.74 1011.55 1011.36 1011.18 1011.04 1010.93 1010.87 1010.83 1010.79 1010.74 1010.65 1010.52 1010.37
1016.23 1016.29 1016.34 1016.36 1016.35 1016.30 1016.21 1016.07 1015.90 1015.70 1015.49 1015.28 1015.08 1014.88 1014.67 1014.45 1014.20 1013.93 1013.63 1013.32 1013.01 1012.72 1012.47 1012.26 1012.09 1011.96 1011.84 1011.72 1011.59 1011.42 1011.22 1011.01 1010.80 1010.62 1010.47 1010.37 1010.31 1010.28 1010.25 1010.20 1010.11 1009.99 1009.84
1016.18 1016.24 1016.31 1016.38 1016.42 1016.43 1016.39 1016.31 1016.20 1016.06 1015.91 1015.76 1015.61 1015.44 1015.26 1015.04 1014.76 1014.43 1014.05 1013.64 1013.21 1012.81 1012.45 1012.14 1011.89 1011.69 1011.53 1011.37 1011.20 1011.01 1010.80 1010.58 1010.37 1010.19 1010.05 1009.96 1009.90 1009.87 1009.83 1009.78 1009.69 1009.56 1009.42
1016.14 1016.20 1016.29 1016.38 1016.47 1016.52 1016.54 1016.51 1016.44 1016.36 1016.27 1016.18 1016.08 1015.97 1015.83 1015.63 1015.35 1014.99 1014.55 1014.06 1013.55 1013.04 1012.58 1012.17 1011.83 1011.56 1011.33 1011.12 1010.92 1010.71 1010.49 1010.27 1010.07 1009.90 1009.77 1009.68 1009.63 1009.60 1009.56 1009.50 1009.40 1009.27 1009.12
1016.15 1016.19 1016.28 1016.40 1016.51 1016.60 1016.64 1016.65 1016.63 1016.59 1016.55 1016.51 1016.48 1016.43 1016.33 1016.17 1015.92 1015.56 1015.10 1014.57 1013.99 1013.41 1012.85 1012.36 1011.93 1011.57 1011.27 1011.01 1010.76 1010.52 1010.29 1010.06 1009.86 1009.70 1009.59 1009.51 1009.46 1009.43 1009.39 1009.32 1009.21 1009.07 1008.92
1016.19 1016.21 1016.30 1016.42 1016.55 1016.65 1016.72 1016.75 1016.75 1016.74 1016.73 1016.74 1016.76 1016.76 1016.73 1016.62 1016.41 1016.09 1015.64 1015.10 1014.50 1013.86 1013.25 1012.67 1012.17 1011.73 1011.34 1011.01 1010.70 1010.42 1010.16 1009.92 1009.71 1009.55 1009.44 1009.37 1009.33 1009.29 1009.25 1009.17 1009.06 1008.91 1008.76
1016.25 1016.26 1016.35 1016.47 1016.59 1016.70 1016.77 1016.80 1016.81 1016.81 1016.82 1016.86 1016.91 1016.97 1016.99 1016.94 1016.80 1016.53 1016.13 1015.61 1015.02 1014.37 1013.72 1013.09 1012.52 1012.00 1011.53 1011.11 1010.74 1010.39 1010.08 1009.80 1009.58 1009.40 1009.28 1009.20 1009.16 1009.12 1009.07 1009.00 1008.89 1008.75 1008.59
1016.30 1016.32 1016.40 1016.51 1016.63 1016.73 1016.80 1016.82 1016.82 1016.81 1016.82 1016.87 1016.94 1017.03 1017.11 1017.12 1017.04 1016.84 1016.51 1016.06 1015.50 1014.88 1014.23 1013.57 1012.95 1012.36 1011.82 1011.32 1010.85 1010.42 1010.04 1009.71 1009.43 1009.22 1009.07 1008.98 1008.92 1008.88 1008.83 1008.76 1008.66 1008.53 1008.38
1016.32 1016.35 1016.43 1016.54 1016.66 1016.74 1016.79 1016.79 1016.77 1016.75 1016.75 1016.79 1016.87 1016.98 1017.09 1017.16 1017.15 1017.03 1016.78 1016.41 1015.93 1015.36 1014.74 1014.09 1013.44 1012.81 1012.20 1011.61 1011.06 1010.54 1010.07 1009.65 1009.30 1009.03 1008.84 1008.71 1008.64 1008.58 1008.54 1008.47 1008.38 1008.26 1008.12
1016.28 1016.33 1016.42 1016.54 1016.64 1016.72 1016.75 1016.73 1016.68 1016.64 1016.62 1016.64 1016.72 1016.83 1016.97 1017.08 1017.13 1017.09 1016.94 1016.66 1016.28 1015.79 1015.23 1014.62 1013.98 1013.33 1012.67 1012.02 1011.38 1010.77 1010.20 1009.69 1009.26 1008.91 1008.66 1008.48 1008.37 1008.30 1008.25 1008.18 1008.10 1007.99 1007.86
1016.17 1016.25 1016.36 1016.48 1016.58 1016.65 1016.67 1016.63 1016.57 1016.50 1016.46 1016.46 1016.52 1016.64 1016.78 1016.92 1017.02 1017.06 1016.99 1016.82 1016.54 1016.16 1015.69 1015.15 1014.55 1013.91 1013.23 1012.54 1011.83 1011.14 1010.49 1009.88 1009.36 1008.94 1008.61 1008.38 1008.22 1008.12 1008.05 1007.99 1007.91 1007.80 1007.68
1016.00 1016.10 1016.23 1016.37 1016.48 1016.55 1016.56 1016.52 1016.45 1016.37 1016.30 1016.29 1016.33 1016.43 1016.57 1016.72 1016.86 1016.95 1016.97 1016.90 1016.73 1016.46 1016.10 1015.65 1015.12 1014.52 1013.87 1013.16 1012.42 1011.68 1010.96 1010.28 1009.68 1009.18 1008.78 1008.49 1008.28 1008.15 1008.05 1007.96 1007.87 1007.76 1007.63
1015.78 1015.92 1016.07 1016.22 1016.34 1016.42 1016.44 1016.41 1016.34 1016.25 1016.18 1016.15 1016.17 1016.25 1016.37 1016.53 1016.68 1016.81 1016.89 1016.91 1016.84 1016.68 1016.43 1016.09 1015.66 1015.13 1014.53 1013.85 1013.12 1012.36 1011.60 1010.88 1010.23 1009.67 1009.21 1008.86 1008.61 1008.42 1008.29 1008.18 1008.06 1007.93 1007.78
1015.54 1015.70 1015.87 1016.04 1016.18 1016.28 1016.32 1016.30 1016.24 1016.17 1016.09 1016.05 1016.06 1016.11 1016.22 1016.36 1016.51 1016.66 1016.78 1016.85 1016.86 1016.80 1016.66 1016.43 1016.10 1015.67 1015.15 1014.53 1013.84 1013.11 1012.36 1011.63 1010.96 1010.37 1009.87 1009.48 1009.17 1008.94 1008.76 1008.61 1008.45 1008.28 1008.09
1015.30 1015.48 1015.67 1015.85 1016.01 1016.13 1016.19 1016.20 1016.16 1016.10 1016.04 1015.99 1015.98 1016.02 1016.10 1016.21 1016.35 1016.49 1016.63 1016.74 1016.80 1016.82 1016.77 1016.63 1016.41 1016.08 1015.65 1015.12 1014.51 1013.84 1013.14 1012.44 1011.78 1011.18 1010.67 1010.24 1009.90 1009.63 1009.40 1009.19 1008.99 1008.77 1008.53
1015.04 1015.24 1015.44 1015.64 1015.82 1015.96 1016.04 1016.08 1016.07 1016.03 1015.98 1015.94 1015.92 1015.94 1015.99 1016.07 1016.18 1016.31 1016.44 1016.55 1016.65 1016.71 1016.72 1016.67 1016.53 1016.30 1015.98 1015.55 1015.03 1014.45 1013.82 1013.18 1012.57 1012.00 1011.49 1011.05 1010.68 1010.37 1010.09 1009.83 1009.57 1009.29 1008.99
1014.76 1014.98 1015.20 1015.41 1015.61 1015.76 1015.86 1015.92 1015.93 1015.91 1015.88 1015.85 1015.83 1015.83 1015.86 1015.92 1016.00 1016.09 1016.20 1016.31 1016.41 1016.49 1016.54 1016.53 1016.47 1016.32 1016.09 1015.76 1015.35 1014.87 1014.33 1013.77 1013.22 1012.70 1012.21 1011.78 1011.40 1011.06 1010.73 1010.42 1010.09 1009.76 1009.40
1014.44 1014.67 1014.91 1015.14 1015.34 1015.50 1015.62 1015.69 1015.72 1015.72 1015.70 1015.68 1015.66 1015.67 1015.69 1015.72 1015.78 1015.85 1015.93 1016.01 1016.10 1016.18 1016.24 1016.26 1016.24 1016.16 1016.00 1015.76 1015.44 1015.06 1014.62 1014.15 1013.67 1013.21 1012.76 1012.35 1011.96 1011.60 1011.24 1010.88 1010.50 1010.10 1009.69
1014.05 1014.31 1014.57 1014.80 1015.00 1015.17 1015.28 1015.36 1015.39 1015.41 1015.41 1015.40 1015.41 1015.42 1015.45 1015.48 1015.53 1015.58 1015.64 1015.70 1015.76 1015.82 1015.87 1015.91 1015.91 1015.86 1015.75 1015.58 1015.34 1015.04 1014.69 1014.31 1013.90 1013.50 1013.10 1012.71 1012.33 1011.95 1011.57 1011.17 1010.75 1010.31 1009.85
1013.59 1013.87 1014.14 1014.38 1014.58 1014.73 1014.84 1014.91 1014.95 1014.97 1014.99 1015.02 1015.05 1015.09 1015.14 1015.20 1015.25 1015.30 1015.35 1015.40 1015.44 1015.48 1015.51 1015.53 1015.53 1015.49 1015.41 1015.28 1015.10 1014.87 1014.59 1014.28 1013.94 1013.59 1013.23 1012.87 1012.51 1012.13 1011.73 1011.31 1010.87 1010.40 1009.91
1013.04 1013.36 1013.63 1013.87 1014.06 1014.19 1014.29 1014.35 1014.39 1014.43 1014.47 1014.53 1014.61 1014.70 1014.79 1014.89 1014.97 1015.05 1015.10 1015.15 1015.18 1015.20 1015.21 1015.21 1015.19 1015.14 1015.07 1014.96 1014.81 1014.62 1014.39 1014.13 1013.85 1013.54 1013.22 1012.89 1012.54 1012.17 1011.78 1011.35 1010.90 1010.42 1009.92
1012.43 1012.76 1013.04 1013.27 1013.44 1013.57 1013.65 1013.70 1013.75 1013.81 1013.88 1013.99 1014.12 1014.27 1014.42 1014.57 1014.71 1014.82 1014.90 1014.95 1014.98 1014.98 1014.97 1014.95 1014.91 1014.85 1014.77 1014.66 1014.52 1014.36 1014.16 1013.93 1013.68 1013.42 1013.13 1012.82 1012.49 1012.14 1011.75 1011.33 1010.88 1010.41 1009.92
Thickness
5777 5776 5776 5775 5774 5773 5771 5769 5768 5766 5765 5763 5762 5761 5760 5758 5756 5754 5753 5751 5749 5748 5746 5744 5742 5740 5739 5737 5735 5733 5731 5730 5728 5726 5724 5723 5722 5720 5719 5717 5716 5715 5714
5778 5776 5775 5774 5773 5772 5770 5769 5767 5765 5764 5763 5762 5761 5760 5758 5755 5753 5752 5750 5749 5747 5746 5744 5742 5740 5738 5736 5734 5732 5730 5728 5727 5725 5724 5722 5720 5719 5717 5716 5714 5713 5713
5779 5777 5775 5774 5773 5772 5770 5768 5767 5765 5763 5762 5760 5760 5758 5757 5755 5753 5751 5749 5747 5746 5745 5743 5742 5740 5738 5736 5734 5732 5729 5727 5726 5724 5723 5721 5719 5718 5716 5714 5713 5712 5711
5780 5778 5776 5774 5773 5772 5770 5768 5766 5762 5761 5759 5758 5758 5757 5756 5754 5752 5750 5747 5746 5744 5743 5742 5740 5739 5737 5735 5733 5731 5729 5727 5724 5722 5721 5719 5718 5716 5714 5713 5711 5710 5709
5779 5778 5776 5775 5774 5772 5770 5769 5765 5763 5759 5758 5757 5756 5755 5754 5752 5751 5749 5746 5745 5743 5742 5740 5739 5738 5736 5734 5732 5731 5729 5726 5723 5721 5719 5717 5716 5714 5712 5711 5709 5708 5707
5779 5777 5776 5775 5773 5772 5769 5768 5765 5763 5760 5758 5757 5754 5753 5752 5751 5750 5748 5746 5744 5742 5740 5739 5737 5736 5734 5733 5731 5730 5728 5725 5723 5720 5718 5716 5715 5713 5711 5709 5708 5707 5705
5779 5777 5776 5775 5773 5771 5769 5768 5765 5761 5759 5758 5753 5748 5749 5750 5749 5747 5745 5743 5741 5740 5739 5737 5735 5734 5733 5731 5730 5728 5726 5724 5722 5719 5718 5716 5714 5712 5710 5708 5706 5705 5704
5779 5778 5776 5774 5773 5771 5768 5766 5764 5760 5757 5757 5751 5744 5739 5740 5743 5745 5743 5741 5739 5738 5736 5735 5733 5732 5731 5730 5728 5727 5725 5722 5721 5719 5717 5715 5713 5710 5708 5706 5704 5704 5702
5780 5779 5777 5775 5773 5771 5768 5766 5764 5760 5756 5755 5755 5748 5738 5732 5735 5739 5740 5739 5737 5736 5734 5734 5732 5731 5729 5728 5726 5725 5723 5722 5720 5718 5716 5713 5711 5709 5707 5705 5703 5702 5701
5780 5779 5777 5776 5773 5771 5769 5767 5765 5762 5758 5754 5753 5753 5750 5744 5735 5731 5734 5736 5735 5734 5733 5732 5731 5729 5727 5726 5724 5723 5722 5720 5718 5716 5714 5711 5709 5707 5705 5704 5702 5701 5700
5780 5779 5777 5775 5773 5771 5769 5767 5765 5763 5760 5756 5753 5751 5748 5745 5741 5733 5728 5729 5731 5731 5731 5730 5728 5727 5726 5724 5722 5721 5720 5719 5716 5714 5711 5709 5707 5705 5703 5702 5701 5700 5699
5778 5777 5777 5775 5773 5771 5769 5767 5765 5763 5761 5758 5755 5752 5748 5743 5739 5735 5729 5727 5726 5728 5729 5728 5726 5725 5724 5722 5721 5720 5718 5716 5714 5711 5709 5707 5705 5703 5701 5699 5698 5697 5696
5775 5776 5776 5774 5773 5771 5770 5768 5765 5762 5761 5758 5756 5753 5751 5748 5745 5739 5732 5727 5725 5725 5725 5725 5724 5723 5721 5720 5719 5717 5715 5713 5711 5709 5706 5704 5702 5700 5698 5696 5695 5694 5693
5776 5777 5776 5774 5773 5771 5769 5767 5764 5762 5760 5758 5756 5754 5751 5749 5746 5742 5736 5729 5722 5720 5720 5720 5721 5721 5719 5717 5716 5714 5712 5710 5708 5706 5704 5702 5699 5697 5695 5693 5692 5690 5689
5778 5777 5775 5774 5772 5770 5768 5765 5762 5760 5759 5756 5754 5752 5750 5748 5746 5743 5740 5735 5726 5717 5716 5718 5718 5719 5717 5715 5713 5711 5709 5707 5706 5704 5701 5699 5696 5694 5693 5691 5689 5687 5686
5777 5776 5774 5772 5770 5768 5766 5763 5761 5759 5756 5754 5753 5750 5748 5746 5744 5742 5739 5736 5732 5725 5717 5718 5717 5717 5715 5713 5711 5708 5706 5704 5702 5700 5698 5696 5694 5692 5690 5688 5686 5684 5682
5776 5774 5772 5770 5767 5765 5763 5761 5758 5756 5754 5752 5750 5748 5746 5745 5742 5739 5737 5734 5730 5726 5719 5717 5716 5715 5712 5710 5708 5705 5703 5701 5699 5697 5695 5693 5691 5689 5687 5685 5683 5681 5678
5775 5772 5770 5767 5765 5762 5760 5758 5755 5754 5751 5749 5747 5745 5744 5743 5740 5737 5734 5731 5728 5726 5720 5715 5713 5711 5709 5707 5705 5702 5700 5699 5697 5695 5693 5691 5689 5686 5684 5682 5680 5677 5675
5772 5769 5767 5764 5761 5759 5757 5755 5752 5750 5749 5747 5745 5743 5741 5739 5736 5734 5732 5729 5726 5725 5721 5715 5710 5709 5706 5704 5701 5699 5697 5694 5693 5692 5690 5688 5686 5684 5681 5679 5676 5674 5672
5768 5765 5763 5761 5758 5756 5754 5752 5750 5747 5745 5744 5743 5741 5739 5737 5734 5732 5729 5726 5723 5720 5716 5712 5708 5705 5703 5701 5697 5693 5690 5689 5688 5688 5686 5684 5682 5680 5678 5675 5673 5670 5668
5766 5762 5759 5757 5755 5753 5751 5749 5746 5744 5741 5739 5738 5737 5736 5735 5733 5730 5727 5723 5719 5715 5712 5708 5704 5701 5698 5695 5692 5690 5687 5685 5683 5683 5680 5679 5677 5675 5674 5671 5669 5667 5664
5760 5758 5755 5753 5750 5750 5748 5746 5742 5739 5737 5734 5732 5731 5731 5730 5729 5726 5724 5720 5717 5712 5708 5704 5701 5697 5695 5693 5690 5687 5682 5678 5676 5679 5675 5673 5672 5670 5670 5668 5666 5663 5661
5754 5752 5750 5747 5744 5743 5742 5739 5738 5735 5731 5728 5727 5725 5725 5725 5723 5720 5717 5716 5712 5710 5707 5703 5698 5696 5693 5691 5686 5682 5679 5676 5675 5676 5672 5668 5667 5665 5666 5665 5663 5660 5657
5748 5746 5744 5742 5739 5737 5736 5734 5732 5730 5726 5723 5722 5721 5719 5717 5717 5713 5710 5708 5705 5704 5702 5700 5697 5695 5693 5690 5686 5682 5678 5674 5672 5671 5668 5662 5663 5661 5662 5660 5659 5657 5654
5742 5740 5739 5736 5734 5731 5730 5728 5726 5722 5719 5716 5716 5715 5713 5710 5709 5706 5703 5700 5698 5697 5696 5695 5693 5691 5688 5685 5681 5676 5671 5666 5663 5663 5663 5659 5658 5656 5655 5655 5655 5653 5650
5736 5735 5733 5730 5728 5726 5724 5722 5719 5715 5711 5709 5709 5708 5706 5704 5701 5699 5695 5692 5690 5689 5689 5687 5686 5684 5682 5680 5677 5673 5669 5663 5659 5657 5659 5655 5652 5649 5647 5650 5649 5647 5645